Location: Commerce
(34.0006°N, 118.1598°W)
Time: 06:19:14
(UTC+00:00)

Daily predictions for brighter satellites

Satellite Brightness Start Highest point End
(mag) Time Altitude Azimuth Time Altitude Azimuth Time Altitude Azimuth
ALOS 4.4 12:00:02 10° NW 12:01:25 11° WNW 12:02:48 10° W
Cosmos 1809 Rocket 4.5 12:03:37 10° NNW 12:09:40 69° W 12:15:43 10° S
Cosmos 1782 3.3 12:09:20 10° NNW 12:12:53 37° W 12:16:24 10° SSW
Cosmos 2151 4.0 12:09:16 10° SSE 12:13:13 46° E 12:17:11 10° NNE
